Regional Weather Roundup
Issued by NWS

Home | Current Version | Previous Version | Text Only | Print | Product List | Glossary Off
Versions: 1 2 3 4 5 6 7 8 9 10 11 12 13 14 15 16 17 18 19 20 21 22 23 24 25 26 27 28 29 30 31 32 33 34 35 36 37 38 39 40 41 42 43 44 45 46 47 48 49 50

000
ASUS43 KMPX 170701
RWRMN
WEATHER ROUNDUP FOR MINNESOTA
NATIONAL WEATHER SERVICE TWIN CITIES/CHANHASSEN MN
100 AM CST SAT FEB 17 2018


NOTE: "FAIR" INDICATES FEW OR NO CLOUDS BELOW 12,000 FEET WITH NO
SIGNIFICANT WEATHER AND/OR OBSTRUCTIONS TO VISIBILITY. N/A MEANS
CURRENT SKY AND/OR WEATHER CONDITIONS ARE NOT AVAILABLE.

MNZ060>063-068>070-170800-
   Twin Cities Metro

CITY           SKY/WX    TMP DP  RH WIND       PRES   REMARKS
TWIN CITIES    CLOUDY    22  12  65 SW12G21   29.96F WCI  10
ST PAUL        CLOUDY    16   9  74 SE8       29.99F WCI   5
CRYSTAL        CLOUDY    20  10  65 S10       29.93F WCI   9
BLAINE         CLOUDY    21  12  68 S13G20    29.93F WCI   9
LAKEVILLE      FAIR      16  10  79 S14G20    29.95F WCI   1
EDEN PRAIRIE   CLOUDY    21  11  65 S15       29.95F WCI   8
SOUTH ST PAUL  CLOUDY    18  10  69 S7        29.97F WCI   9
LAKE ELMO      MOCLDY    16  10  79 S10       29.97F WCI   3
$$
MNZ001>005-007-008-013>017-022>024-027-028-170800-
   Northwest Minnesota

CITY           SKY/WX    TMP DP  RH WIND       PRES   REMARKS
BEMIDJI        FAIR      20  15  80 SW9       29.74S WCI   9
HALLOCK        FAIR      12   9  85 W6        29.73R WCI   3
ROSEAU         FAIR      21  14  73 W10       29.68S WCI  10
WARROAD        FAIR      19  12  73 W12G17    29.67R WCI   7
THIEF RVR FALL FAIR      20  15  81 SW10      29.73S WCI   9
CROOKSTON      FAIR      21  18  86 W9        29.77R WCI  11
FOSSTON        FAIR      19  12  73 SW15      29.75F WCI   5
DETROIT LAKES  FAIR      21  19  93 SW9       29.79S WCI  11
MOORHEAD       FAIR      23  16  74 S5        29.81F WCI  17
PARK RAPIDS    CLOUDY    19  14  81 SW10      29.77F WCI   7
MAHNOMEN       CLOUDY    21  16  83 SW12      29.77S WCI   9
$$
MNZ006-009>011-018-025>026-170800-
   North Central Minnesota

CITY           SKY/WX    TMP DP  RH WIND       PRES   REMARKS
BAUDETTE       FAIR      20  12  71 SW12      29.65F WCI   8
FLAG ISLAND    FAIR      16  10  79 SW9       29.64S WCI   4
INTL FALLS     CLOUDY    20   8  60 SW12      29.67F WCI   8
WASKISH        FAIR      21  16  79 SW15      29.70F WCI   8
BIG FORK       FAIR      21  10  63 SW13G20   29.72F WCI   9
LONGVILLE      FAIR      18   9  68 S6        29.79F WCI   9
GRAND RAPIDS   CLOUDY    16   8  71 S12       29.79F WCI   3
CRANE LAKE     FAIR      16   7  67 S5        29.73F WCI   9
ORR            FAIR      18   7  62 S7        29.69F WCI   8
COOK           CLOUDY    18   7  62 SW9G18    29.73F WCI   6
WALKER         PTSUNNY   19  12  77 SW10      29.76S WCI   7
$$
MNZ012-019>021-037-170800-
   Northeast Minnesota

CITY           SKY/WX    TMP DP  RH WIND       PRES   REMARKS
DULUTH         CLOUDY    14   4  64 SW14      29.82F WCI  -1
ELY            FAIR      14   3  62 SW12      29.75F WCI   0
HIBBING        CLOUDY    14   4  64 S9        29.77F WCI   2
EVELETH        FAIR     N/A N/A N/A SW13G18   29.79F
DULUTH HARBOR  MOCLDY    18   9  68 SW16G22   29.89F WCI   3
TWO HARBORS    FAIR      18   7  62 SW10      29.83F WCI   6
G MARAIS ARPRT LGT SNOW  12   7  79 S7        29.77F WCI   2
$$
MNZ029>031-032-039>041-046>048-054>057-064-170800-
   West Central Minnesota

CITY           SKY/WX    TMP DP  RH WIND       PRES   REMARKS
FERGUS FALLS   FLURRIES  19  16  86 S9        29.83F WCI   9
WHEATON        CLOUDY    25  16  68 SW10      29.86S WCI  15
MORRIS         CLOUDY    19  12  73 CALM      29.85R
ALEXANDRIA     CLOUDY    18  11  74 SW10      29.83  WCI   6
ELBOW LAKE     CLOUDY    19  13  76 S8        29.84S WCI   9
WADENA         LGT SNOW  19  12  73 SW12      29.80S WCI   7
GLENWOOD       FAIR      18  12  79 SW8       29.84F WCI   7
APPLETON       CLOUDY    27  18  69 W9        29.86S WCI  17
BENSON         CLOUDY    19  12  73 SW6       29.87F WCI  11
MADISON        CLOUDY    28  19  69 SW20G28   29.85F WCI  15
WILLMAR        FAIR      18  12  79 CALM      29.89F
$$
MNZ033>034-036-042>043-049>051-058-059-170800-
   Central Minnesota

CITY           SKY/WX    TMP DP  RH WIND       PRES   REMARKS
ST CLOUD       MOCLDY    16  10  77 SW7       29.88F WCI   6
SAUK CENTRE    FAIR      18  12  77 S9        29.85F WCI   7
PAYNESVILLE    CLOUDY    19  13  80 S8        29.87F WCI   8
AITKIN         FAIR      16   7  67 S12       29.83F WCI   3
PINE RIVER     FAIR      16   9  73 S7        29.84F WCI   6
BRAINERD       FAIR      16   7  67 S14       29.84F WCI   2
STAPLES        CLOUDY    16   9  73 S9        29.82S WCI   4
LONG PRAIRIE   FAIR      18  10  73 SE7       29.84F WCI   8
LITTLE FALLS     N/A    N/A N/A N/A S7          N/A
LITCHFIELD     FAIR      18  12  79 S3        29.89F
BUFFALO        FAIR      19  11  72 S8G17     29.92F WCI   9
MAPLE LAKE     FAIR      19  13  77 MISG      29.90F
HUTCHINSON     FAIR      17  11  79 S6        29.92F WCI   8
$$
MNZ037-044-045-052-053-170800-
   East Central Minnesota

CITY           SKY/WX    TMP DP  RH WIND       PRES   REMARKS
PRINCETON      FAIR      19  10  68 S5        29.89F WCI  13
MORA           FAIR      14   9  79 S5        29.91F WCI   6
CAMBRIDGE      FAIR      19   9  63 S10       29.91F WCI   8
RUSH CITY      MOCLDY    13   7  78 S7        29.92F WCI   3
MOOSE LAKE     MOCLDY    14   7  73 S7        29.86F WCI   4
HINCKLEY       FAIR      12   9  85 S7        29.90F WCI   2
CLOQUET        MOCLDY    12   3  67 S10       29.84F WCI  -1
MCGREGOR       CLOUDY    18  10  73 S12       29.84F WCI   5
$$
MNZ071>073-080-081-089-090-097-098-170800-
   Southwest Minnesota

CITY           SKY/WX    TMP DP  RH WIND       PRES   REMARKS
MONTEVIDEO     CLOUDY    27  18  69 W13G21    29.85F WCI  16
GRANITE FALLS  CLOUDY    28  19  70 SW16      29.89F WCI  15
CANBY          MOCLDY    27  19  74 SW20      29.88S WCI  13
MARSHALL       CLOUDY    25  17  72 SW24G31   29.88S WCI   9
REDWOOD FALLS  CLOUDY    24  15  68 SW15      29.90F WCI  11
OLIVIA         CLOUDY    23  16  74 SW10      29.89F WCI  12
PIPESTONE      CLOUDY    21  16  79 SW13      29.90R WCI   9
WINDOM         MOCLDY    21   5  49 S20G26    29.92F WCI   6
WORTHINGTON    CLOUDY    22  14  71 S20G28    29.92F WCI   7
JACKSON        PTCLDY    21  14  73 S16       29.95F WCI   7
TRACY          CLOUDY    24  17  74 SW22G30   29.89S WCI   9
SLAYTON        CLOUDY    21  15  77 S23       29.90S WCI   4
$$
MNZ065>067-074>077-082>085-091>093-170800-
   South Central Minnesota

CITY           SKY/WX    TMP DP  RH WIND       PRES   REMARKS
MANKATO        FAIR      18  11  74 S13       29.96F WCI   5
NEW ULM        CLOUDY    19  10  68 S10       29.94F WCI   8
ST JAMES       CLOUDY    19  12  73 S20       29.94F WCI   4
FAIRMONT       CLOUDY    21  14  74 S20G29    29.95F WCI   6
GLENCOE        FAIR      19  13  78 S10       29.92F WCI   7
FARIBAULT      FAIR      18  10  73 S12G17    29.98F WCI   5
OWATONNA       FAIR      16  10  79 S18       29.98F WCI  -1
WASECA         FAIR      19  12  73 S18       29.99F WCI   4
ALBERT LEA     MOCLDY    19  10  68 S12G17    29.99F WCI   7
$$
MNZ078>079-086>088-094>096-170800-
   Southeast Minnesota

CITY           SKY/WX    TMP DP  RH WIND       PRES   REMARKS
ROCHESTER      FAIR      16   8  71 S16       30.02F WCI   1
RED WING       FAIR      18   5  57 SE6       30.01F WCI   9
STANTON        FAIR      18  10  70 S16G22    29.96F WCI   3
DODGE CENTER   FAIR      16   9  73 S17       29.98F WCI   0
WINONA         FAIR      19   9  63 SW5       30.08F WCI  13
AUSTIN         FAIR      16   9  73 S10       30.03F WCI   3
PRESTON        FAIR      15   6  67 S15       30.04F WCI  -1
$$
ABBREVIATIONS USED IN REMARKS
   TC - TEMPERATURES IN CELSIUS
  WCI - WIND CHILL INDEX
   HX - HEAT INDEX
  VSB - VISIBILITY
$$




USA.gov is the U.S. government's official web portal to all federal, state and local government web resources and services.